星链-34302 (STARLINK-34302)

导读

STARLINK-34302是美国太空探索技术公司(SpaceX)星链(Starlink)互联网星座的一颗卫星,于2025年8月14日发射。星链计划旨在通过大规模低轨卫星网络,为全球提供高速互联网接入服务,该卫星的入轨进一步扩充了星链星座的规模,持续推进全球覆盖布局。

Basic Information
目录编号:
65216
目录名称:
STARLINK-34302
国际标识:
2025-176U
轨道中心:
EARTH
卫星名称:
星链-34302
卫星全名:
星链-34302 (STARLINK-34302)
卫星状态:
在轨 (已飞行303 天)
发射日期:
2025-08-14 UTC
国别 :
美国 (US)
星等 :
--
Orbit Information
数据来源 国际轨道数据 AOE轨道数据
星历时间 2026-06-13T08:39:29+0800
20小时前
查看轨道信息
2026-06-09T00:00:00+0800
5天前
查看轨道信息
半长轴 6840.809km 6840.921km
偏心率 0.00014 0.0001041
轨道倾角 53.159° 53.159°
近地点辐角 101.646° 87.311°
升交点赤经 68.724° 89.110°
平近点角 258.470° 291.299°
近地点 461.714km 462.071km
远地点 463.63km 463.497km
周期 93.847分钟 93.849分钟
每日圈数 15.344108 15.343729
Detailed Information
固有亮度:
5
最大亮度:
2.5
卫星平台:
Starlink V1.0
覆盖范围:
全球
运营商:
太空探索技术公司
运营商所在国:
美国
制造商(研发单位):
太空探索技术公司
制造商所在国:
美国
使用方式:
暂无
Satellite Introduction
Starlink 计划是 SpaceX 推出的全球卫星互联网项目,通过发射低轨道卫星,为全球尤其是偏远地区提供高速、低延迟的互联网服务。自 2019 年起,Starlink 已部署数千颗卫星,旨在缩小全球数字鸿沟,推动互联网普及。该项目还为军事、航空等行业提供通信支持,带来广泛经济效益。
2D Orbit Map
3D Orbit Map
Orbit Altitude Analysis Chart
Orbit Inclination Analysis Chart
Orbit Comprehensive Analysis Chart
View Comprehensive Chart